Location: Auckland
(36.8670°S, 174.7670°E)
Time: 07:13:45
(UTC+12:00)

A-11 Canister half - Pass Details

Date: 28 July 2019
Orbit: 1526 x 1683 km, 47.3° (Epoch: 16 August)

Event Time Altitude Azimuth Distance (km) Brightness Sun altitude
Rises 04:49:38 0° 347° (NNW) 4,667 11.4 -30.7°
Reaches altitude 10° 04:53:14 10° 358° (N) 3,686 11.0 -29.9°
Maximum altitude 05:00:40 28° 52° (NE) 2,580 10.6 -28.5°
Drops below altitude 10° 05:08:09 10° 106° (ESE) 3,737 11.9 -27.0°
Sets 05:11:48 0° 116° (ESE) 4,743 12.5 -26.2°
